GFSSW_850_thetae_132.txt.gz
Theta_e
303 303 303 304 304 304 304 304 304 303 303 302 301 301 301 302 302 303 305 307 306 306 307 314 313 312 310 312 310 310 307 306 307 309 310 313 314 316 317 317 317 321 324 333 347
303 303 303 303 303 303 303 303 303 303 303 303 303 301 301 301 303 306 309 308 308 306 307 313 313 314 313 312 310 306 304 306 308 309 312 313 313 314 315 315 316 318 326 343 350
303 303 303 303 303 303 303 303 302 303 303 303 302 302 302 302 304 308 314 315 315 313 307 310 312 312 311 308 308 307 308 307 310 312 313 312 313 314 314 313 315 317 322 342 352
303 303 303 303 303 303 303 303 303 303 303 302 302 302 308 306 305 309 315 316 315 313 311 307 313 312 307 305 307 306 306 309 310 312 313 312 314 313 313 314 316 316 316 331 351
300 300 299 299 299 299 299 300 300 302 302 302 301 304 307 307 307 307 310 316 313 309 316 309 313 312 308 306 308 306 307 308 310 310 311 311 310 311 312 313 314 315 316 317 339
298 298 298 297 297 298 298 298 298 298 298 300 302 305 306 307 308 308 307 307 307 307 311 314 312 314 310 307 307 309 308 309 310 310 310 310 310 311 313 314 314 315 317 317 326
297 297 297 297 297 297 297 298 298 298 298 298 299 307 306 306 306 307 307 306 312 313 314 315 315 314 312 309 311 310 309 308 307 309 309 310 309 309 312 313 314 316 317 325 333
297 297 297 297 297 297 297 298 298 298 298 298 300 306 307 305 304 305 305 306 309 317 317 316 316 314 311 311 311 308 307 308 307 307 309 310 310 311 313 313 314 316 319 326 333
296 296 296 296 297 297 298 298 299 299 300 303 306 306 306 306 306 306 308 308 307 314 318 318 316 317 314 311 310 310 311 307 311 307 309 308 309 310 313 313 314 315 316 325 332
296 295 295 296 296 297 299 299 299 301 306 306 306 307 306 305 307 311 313 314 308 309 308 310 315 314 313 312 318 311 313 314 312 310 308 308 309 311 312 313 314 315 315 327 333
295 295 296 296 297 299 300 301 300 303 308 308 308 306 305 306 312 310 313 314 310 309 308 310 318 318 317 317 314 311 312 312 312 312 311 308 308 308 309 310 311 314 315 316 326
296 296 297 297 299 301 303 303 302 303 302 302 302 304 303 303 307 306 313 313 311 314 308 313 318 316 315 316 315 312 314 313 313 311 310 311 310 309 309 309 311 313 314 315 316
298 299 299 300 301 305 306 303 301 301 301 301 301 303 304 306 306 307 308 312 313 315 309 313 316 316 315 315 314 314 314 312 313 312 312 312 311 312 312 310 312 313 315 315 316
299 300 301 301 304 305 306 305 304 303 300 301 306 308 309 310 311 312 310 309 314 315 312 312 313 316 316 316 314 314 315 313 313 312 312 311 310 311 312 311 311 312 314 315 315
300 301 302 305 304 305 305 306 305 303 304 303 310 308 312 312 312 314 314 311 311 313 317 317 316 317 317 317 316 315 316 315 316 311 311 311 310 310 312 314 313 315 319 318 315
300 301 304 304 303 304 304 305 304 308 306 305 307 309 310 310 312 314 315 313 312 311 315 315 317 317 318 317 316 316 316 316 311 308 310 309 310 310 312 321 318 318 324 324 322
300 301 305 304 303 303 304 305 308 307 304 306 309 310 310 311 312 313 314 314 315 315 314 318 319 317 319 318 317 316 316 312 311 310 312 309 310 310 322 321 320 320 323 327 327
301 302 304 302 303 303 305 306 307 305 306 308 309 309 311 312 314 314 311 315 314 317 315 319 320 320 319 319 319 316 314 310 313 311 310 310 311 315 323 323 323 322 323 326 327
301 302 302 302 303 304 305 305 307 310 309 310 309 311 311 311 313 315 312 315 316 318 320 322 320 318 318 317 317 318 316 309 309 311 311 315 324 324 323 323 324 322 322 322 326
302 302 302 303 303 304 302 304 309 306 308 310 311 310 311 311 313 315 313 314 315 317 319 320 324 319 320 318 318 317 314 314 311 315 316 326 325 326 327 327 325 323 322 322 323
302 302 302 303 303 303 304 306 305 305 307 308 311 312 311 312 313 314 315 316 315 317 317 321 321 321 320 322 321 317 316 313 310 314 320 325 326 322 324 323 324 322 322 321 322
301 298 302 303 302 302 305 304 304 307 307 308 308 310 311 310 312 314 315 317 318 318 320 320 320 320 319 319 319 317 314 310 312 320 317 318 328 323 321 320 321 320 316 316 318
301 301 302 303 304 304 304 305 306 307 308 309 308 306 309 314 314 314 314 318 318 318 319 321 322 323 323 320 320 319 316 311 313 317 320 320 325 322 322 323 320 315 313 312 312
301 300 302 302 303 304 304 305 306 306 307 308 310 309 308 312 312 315 315 319 319 319 319 320 319 316 320 320 319 319 317 314 317 317 320 320 327 327 324 321 317 313 311 310 310
301 299 301 304 303 303 304 305 305 308 307 307 310 310 312 312 314 315 314 314 317 315 317 321 321 322 320 320 319 316 316 314 316 317 318 324 326 326 323 320 314 311 310 310 309
302 301 301 302 302 303 305 305 305 307 308 309 309 309 311 313 313 314 314 316 319 317 317 318 321 321 323 323 322 319 317 316 318 323 324 324 327 322 320 314 313 311 310 308 308
302 302 301 303 303 304 305 305 306 306 307 307 308 310 311 312 311 311 311 312 313 317 319 319 320 317 323 324 324 324 325 321 323 323 323 325 324 322 316 314 312 310 309 307 306

GFSSW_850_thetae_138.txt.gz
Theta_e
299 299 299 299 299 299 299 298 299 299 299 301 303 303 304 304 305 306 310 312 310 308 306 315 319 318 319 315 314 314 318 320 321 319 319 318 318 317 317 319 320 322 328 335 342
298 298 298 298 298 298 298 298 298 298 298 298 298 299 301 303 304 309 311 310 309 310 306 313 317 318 320 319 314 316 318 320 321 321 319 318 318 318 318 318 318 319 325 338 346
298 298 298 298 297 298 298 298 298 298 298 298 298 298 298 299 308 310 311 314 314 310 311 312 314 317 318 318 317 316 320 321 319 318 317 318 318 317 318 319 319 319 320 333 341
298 298 298 298 298 298 298 298 298 297 297 297 298 298 300 307 309 316 311 314 314 311 314 312 314 316 318 318 317 317 318 318 318 316 316 318 317 318 317 319 318 317 318 326 338
298 298 297 297 297 297 298 298 298 297 298 298 298 302 305 307 308 310 311 316 314 318 315 312 314 316 317 318 317 317 318 316 316 315 315 316 317 317 318 317 316 316 316 318 324
297 298 298 297 298 299 299 300 300 300 300 300 299 306 305 307 305 306 307 312 314 317 317 314 313 314 315 317 318 317 315 316 315 316 315 316 317 316 316 315 315 315 316 317 319
297 298 299 300 300 300 300 300 302 302 302 302 303 306 306 306 302 306 307 308 308 310 317 317 314 313 313 316 315 315 316 317 317 315 316 315 316 316 315 315 316 316 317 317 319
299 299 300 300 299 300 300 302 302 302 302 302 303 307 307 306 304 306 306 307 309 315 313 314 315 314 315 315 315 317 317 318 318 318 317 315 318 319 316 315 315 316 316 317 318
299 300 300 300 300 301 302 302 303 303 303 304 307 306 307 306 307 307 307 307 306 309 313 315 317 316 315 317 318 318 318 317 318 317 318 317 318 319 317 317 317 317 316 317 318
300 300 300 300 301 302 302 302 305 305 307 307 307 307 306 306 307 309 312 309 308 308 307 312 316 319 318 318 321 320 319 320 319 318 317 317 318 319 318 317 318 318 317 318 319
300 300 300 300 302 303 302 306 307 308 307 306 306 306 305 305 306 306 313 311 310 311 310 311 316 319 319 319 318 320 320 319 319 319 318 319 319 320 319 318 318 318 318 319 319
301 301 301 301 302 302 304 306 305 304 305 305 307 307 306 304 304 305 308 312 312 314 312 313 315 316 318 319 319 319 320 320 319 318 318 319 320 319 319 319 318 319 319 319 320
301 301 301 301 302 305 305 305 304 303 304 307 306 306 308 306 307 307 305 311 313 315 314 315 315 314 317 319 319 320 320 321 321 319 317 319 319 319 319 319 318 318 319 320 320
301 302 302 301 306 305 306 304 304 303 307 309 307 309 308 309 310 308 310 308 309 312 315 315 315 315 315 318 319 321 319 319 319 319 320 319 322 321 321 320 320 319 319 319 320
301 302 302 303 303 306 304 304 304 303 314 309 308 309 309 309 310 311 310 308 308 309 311 315 315 315 316 317 319 320 319 318 318 319 320 319 320 323 321 321 320 320 319 319 320
301 302 302 306 306 305 304 305 304 311 313 311 309 310 311 310 312 312 311 309 309 311 310 314 313 315 316 317 318 319 319 319 318 319 319 320 320 322 321 321 320 320 321 324 325
301 302 303 303 305 304 304 307 314 315 311 311 310 310 311 312 312 314 315 315 313 314 314 311 313 315 316 317 318 318 320 322 320 321 322 321 320 322 324 325 321 324 327 328 328
302 302 303 304 304 304 308 313 315 312 311 308 309 310 313 312 312 312 314 317 313 313 312 313 313 314 316 317 319 320 321 321 323 323 322 321 321 323 329 329 328 329 328 328 329
302 303 305 305 304 305 311 315 312 311 308 309 309 312 313 313 313 313 316 316 314 313 316 313 312 313 316 318 318 320 320 320 322 322 322 320 324 329 330 328 328 328 327 325 325
303 304 305 304 304 308 311 308 309 308 308 309 312 312 314 313 314 315 315 316 313 315 316 316 316 314 318 318 318 319 319 320 322 323 323 320 323 323 331 329 327 327 325 324 325
305 307 304 305 306 308 309 308 307 307 308 309 311 312 312 314 312 314 315 315 313 315 314 316 319 316 315 319 320 319 320 320 321 322 323 322 323 326 330 329 327 325 324 325 326
305 308 304 305 308 306 307 305 306 308 308 309 309 309 311 310 313 315 317 312 312 313 314 316 320 319 316 319 318 320 321 321 321 322 322 324 333 329 331 327 325 323 323 323 322
305 305 305 306 307 306 306 307 307 309 309 310 310 308 308 310 312 315 314 312 313 315 317 316 323 324 321 322 321 321 321 320 320 321 325 325 334 327 326 323 321 319 318 318 317
305 307 305 306 305 305 306 308 308 308 309 308 309 309 310 311 312 315 314 313 312 315 317 316 322 321 325 324 323 321 321 320 321 323 324 324 331 328 323 320 318 316 316 315 315
303 306 303 306 306 305 307 307 308 309 307 308 310 309 310 311 313 314 312 313 314 316 315 320 324 320 323 323 324 323 320 320 320 321 324 330 332 327 322 320 318 316 316 316 316
302 303 302 303 304 306 307 308 307 308 308 310 309 309 310 312 313 312 313 314 314 314 313 320 324 322 325 322 321 321 320 320 319 321 326 329 332 324 320 317 316 316 317 317 316
301 301 302 303 306 307 308 306 307 307 307 308 309 310 311 311 309 310 311 312 313 315 312 319 325 326 325 323 323 323 321 319 320 324 327 331 327 320 317 317 316 317 316 315 314

GFSSW_850_thetae_141.txt.gz
Theta_e
299 299 299 299 299 299 299 299 299 299 299 298 298 298 299 299 300 304 311 313 314 314 309 315 319 315 317 321 320 318 321 322 323 323 324 325 323 322 321 322 322 323 324 339 346
299 299 298 298 298 298 298 298 298 298 298 298 298 298 298 298 301 308 308 309 310 311 311 312 314 319 317 320 322 322 321 322 323 324 325 324 323 322 321 321 322 322 323 336 343
298 298 299 299 299 299 299 299 299 299 299 299 298 298 298 298 307 313 314 311 311 310 311 313 313 318 319 319 322 321 321 323 323 323 323 323 323 321 322 322 321 321 322 330 340
298 298 298 298 299 300 300 300 300 300 300 300 299 300 306 306 310 316 312 313 314 312 315 314 315 317 322 322 322 321 320 320 322 322 321 322 322 322 321 322 322 321 321 324 333
298 298 299 300 300 300 300 300 300 301 302 302 302 305 306 308 308 307 310 311 314 317 316 317 316 317 320 321 322 323 322 320 320 321 321 319 321 321 322 321 321 320 320 320 329
299 300 300 300 300 300 300 301 302 302 303 303 303 306 306 309 306 306 307 311 316 315 320 318 317 317 319 321 321 321 322 321 320 320 320 320 320 320 320 320 320 320 319 319 320
300 300 301 301 300 300 301 301 302 302 303 303 303 307 307 307 307 306 307 307 309 311 315 319 318 317 317 321 320 321 322 321 321 320 320 319 319 320 320 320 319 318 318 318 319
300 301 301 301 300 300 301 302 302 304 305 304 304 309 309 308 308 308 308 307 308 310 311 314 319 317 317 318 318 320 321 322 321 320 320 319 320 321 319 319 319 318 319 319 319
301 301 301 301 301 301 301 302 305 305 306 306 311 309 310 308 309 309 309 308 308 309 312 314 315 319 318 319 319 320 320 321 322 322 321 319 320 321 321 319 319 319 319 319 319
301 301 301 302 301 301 302 305 308 307 309 310 309 310 310 309 307 309 308 311 311 308 309 315 317 319 321 320 323 321 321 322 321 323 321 321 321 322 321 321 320 320 320 319 319
301 301 302 302 302 302 305 310 309 311 311 309 310 310 308 309 308 307 307 307 311 310 311 311 318 322 322 321 320 323 323 323 323 322 321 321 322 322 322 322 321 321 321 320 320
301 301 302 302 302 306 308 310 308 307 308 307 308 308 309 309 309 309 306 310 312 313 312 311 313 317 319 321 321 322 324 325 324 323 321 322 322 322 323 322 322 321 322 321 321
301 301 302 302 306 310 308 309 307 307 308 309 309 308 310 310 311 310 308 307 313 314 314 313 311 313 317 321 322 322 323 324 324 322 323 322 323 323 323 322 322 321 321 321 321
301 301 302 302 307 309 310 308 308 306 310 313 311 310 310 312 313 311 310 308 311 314 314 315 313 314 314 317 320 323 322 323 323 323 322 322 324 324 324 323 323 322 322 322 322
301 302 303 306 307 310 308 307 307 307 320 312 312 311 311 311 312 312 311 311 313 311 312 316 315 315 315 315 318 321 321 322 324 324 323 323 323 326 324 324 323 323 322 322 322
301 302 302 308 308 308 307 308 307 315 319 315 311 312 313 313 314 314 312 311 309 312 312 312 314 314 316 315 317 319 321 322 323 324 324 325 323 325 326 325 324 323 322 322 322
302 302 304 307 308 307 308 311 317 317 313 313 312 312 313 315 315 316 316 313 314 314 313 311 311 315 316 317 316 318 322 323 323 323 325 325 324 326 326 325 324 324 322 321 322
302 303 309 308 307 308 311 314 318 314 313 311 312 313 316 315 315 313 314 316 312 314 316 315 311 314 316 317 317 320 323 325 325 325 324 324 324 324 328 327 324 322 323 325 326
303 309 309 306 308 309 313 318 314 313 312 312 311 314 315 314 313 316 316 317 314 314 317 318 312 314 316 319 318 319 322 324 322 322 323 325 328 333 331 331 332 331 330 329 328
307 309 309 307 309 311 315 312 312 310 311 312 314 313 315 314 313 314 317 317 315 315 315 319 314 313 317 318 320 321 322 324 323 324 324 325 329 331 332 333 332 331 329 331 332
309 310 308 309 310 310 314 312 310 309 310 312 314 314 313 313 312 315 318 315 312 313 316 318 320 316 315 317 321 320 321 323 323 323 326 326 328 329 331 331 330 328 327 328 331
310 312 308 309 311 310 311 309 308 310 310 311 311 312 311 311 313 314 318 312 311 313 318 316 321 317 317 319 318 318 321 323 324 326 325 326 337 329 331 330 328 328 329 329 329
308 309 308 309 313 311 309 309 310 310 311 312 311 312 309 311 314 315 315 314 313 314 315 317 321 323 321 319 319 321 321 321 325 327 327 328 339 332 329 328 327 327 327 328 327
307 310 307 308 309 309 310 310 310 310 310 310 311 311 311 312 312 315 315 314 313 314 314 316 320 322 324 321 322 323 321 322 324 327 325 329 334 330 327 326 325 324 323 323 323
306 308 306 310 309 309 309 310 310 310 309 309 311 311 313 312 313 315 313 313 313 315 316 315 323 319 321 320 319 320 323 322 324 324 327 334 332 328 324 323 322 321 321 321 321
304 304 304 305 308 311 309 310 309 310 310 312 311 312 313 314 313 313 314 314 314 314 315 317 326 321 319 321 324 322 322 321 322 324 325 330 332 325 321 320 320 320 321 321 320
303 303 303 306 310 311 311 309 310 310 310 310 311 312 313 313 312 313 314 315 316 316 317 320 324 322 325 325 321 325 322 322 323 323 325 332 326 322 321 320 320 320 320 320 319

GFSSW_850_thetae_147.txt.gz
Theta_e
300 301 301 301 301 301 301 302 301 301 301 300 300 300 301 301 301 302 302 305 304 305 310 313 314 316 317 313 319 322 319 320 319 317 316 320 318 323 324 323 327 332 344 353 354
301 301 301 301 301 301 301 301 301 301 301 301 301 301 302 302 302 303 305 309 310 311 308 310 315 314 316 313 315 320 321 321 318 317 318 318 319 322 323 323 324 342 348 352 354
301 301 301 301 301 301 301 300 300 300 301 301 302 302 302 302 304 307 314 309 308 308 311 309 313 316 315 314 314 319 323 320 320 320 320 319 320 322 321 319 322 323 345 347 352
301 301 301 301 301 301 301 301 301 301 301 302 302 302 305 307 306 310 315 312 308 309 313 313 311 312 314 313 315 313 319 321 321 321 320 319 321 321 322 321 322 322 334 342 346
301 301 301 301 301 302 302 302 302 302 301 302 302 303 307 308 308 307 308 308 308 309 315 314 314 312 313 315 315 315 315 318 321 322 321 321 320 320 321 322 322 322 322 338 338
300 300 301 301 302 302 302 302 302 302 302 302 303 305 308 308 306 307 309 309 308 312 313 315 315 314 314 314 314 315 318 317 318 320 321 321 319 320 321 322 322 322 322 330 336
300 300 301 302 302 302 302 303 304 304 303 304 305 306 308 308 309 309 309 310 310 308 309 309 316 317 318 316 317 316 316 319 319 319 321 321 319 319 321 322 321 322 322 322 333
300 300 301 302 302 302 303 307 310 310 308 307 306 306 309 311 310 310 310 311 310 310 308 309 310 310 311 317 319 318 317 317 319 320 321 319 319 319 321 320 320 322 322 321 321
300 300 301 302 302 302 305 310 312 312 311 310 308 308 312 312 312 311 310 310 311 311 309 309 310 310 310 313 317 319 319 319 319 320 321 321 320 319 321 320 320 321 321 321 321
300 300 301 302 302 303 308 311 312 312 312 312 311 311 312 313 313 312 311 310 310 310 311 311 310 309 311 312 320 321 318 319 319 320 321 321 321 318 320 320 320 321 321 321 320
300 300 301 302 303 304 311 312 311 312 311 309 310 312 311 311 310 311 311 311 311 310 309 312 312 310 310 312 315 320 319 319 320 320 321 321 320 318 318 319 318 320 321 320 320
300 301 301 302 303 308 312 313 310 310 310 310 311 311 311 311 311 311 311 312 311 310 308 308 312 311 311 312 314 318 320 319 321 322 320 319 320 319 319 318 319 319 321 320 320
301 301 302 303 306 309 312 311 310 310 309 311 313 313 312 312 312 311 312 313 312 311 309 309 311 311 310 311 314 315 319 319 320 321 321 320 320 320 320 319 321 320 321 321 320
301 302 302 303 308 311 312 310 310 311 310 314 314 313 313 313 313 314 313 313 312 312 311 310 311 312 312 310 313 316 318 321 321 320 320 321 321 320 320 319 319 320 320 321 321
302 303 304 306 309 310 309 310 311 312 318 314 313 312 313 314 315 315 313 312 312 313 312 313 313 313 312 311 311 314 317 320 321 321 322 321 319 321 319 320 320 319 320 321 321
302 305 305 308 309 310 310 310 313 315 317 313 312 312 313 315 314 315 315 313 311 313 313 313 312 312 314 314 312 314 316 319 320 321 324 324 319 318 320 320 320 319 321 322 322
302 307 310 310 310 311 313 313 315 315 312 313 312 312 314 313 313 314 315 314 313 314 315 314 313 311 314 314 315 312 314 320 322 323 329 325 323 319 321 320 320 320 322 323 322
304 311 311 312 311 312 313 315 316 313 312 311 312 313 313 312 312 312 313 316 314 314 315 319 316 312 312 313 315 311 312 324 327 324 325 324 327 321 321 322 322 322 322 323 323
310 312 314 311 311 312 313 313 314 312 311 312 312 313 313 314 312 312 313 312 315 311 316 318 315 312 312 314 315 316 313 317 322 321 324 325 325 328 324 324 320 321 322 323 323
311 314 312 309 312 313 314 314 312 311 311 312 314 314 317 314 313 313 313 315 313 313 314 315 318 314 312 314 315 316 315 317 323 327 328 326 325 326 328 327 321 320 319 328 338
311 314 309 309 312 311 309 312 311 311 310 311 313 314 314 314 313 314 314 315 312 313 313 316 317 315 312 315 317 317 318 319 320 323 323 328 326 328 334 322 326 331 335 339 340
310 312 309 311 311 312 310 312 311 311 310 311 313 313 314 313 314 314 314 314 313 313 314 315 319 318 312 316 316 316 317 319 322 324 325 328 329 330 332 332 332 331 337 338 337
309 311 309 310 312 312 312 313 312 311 311 312 312 313 312 313 314 313 313 313 314 314 312 314 319 317 315 318 318 319 318 320 321 323 325 329 332 331 330 331 333 336 336 336 335
309 308 309 308 309 311 312 313 311 311 311 311 312 313 313 313 313 315 314 314 314 315 314 314 317 320 317 317 319 321 321 319 321 326 329 330 336 332 328 328 329 332 333 333 333
306 307 306 306 308 308 312 311 311 312 311 312 313 313 313 313 314 316 314 314 315 314 314 316 318 318 319 321 318 320 320 321 322 324 327 330 332 330 328 328 328 330 330 328 326
306 305 305 305 307 309 311 311 310 311 312 312 312 312 312 313 314 313 314 314 316 315 314 315 319 319 320 320 321 319 319 320 320 322 330 330 332 329 327 328 329 327 325 324 322
304 305 306 306 308 309 310 310 310 311 311 311 311 312 313 313 311 312 313 313 315 316 316 314 319 322 322 321 322 321 320 319 323 328 328 331 329 326 325 325 324 323 321 320 319